Location: Haliburton Scout Reserve
(45.0900°N, 78.3200°W)
Time: 11:23:18
(UTC-05:00)

N. Korean satellite - Pass Details

Date: 29 November 2021
Orbit: 447 x 491 km, 97.3° (Epoch: 23 January)

Event Time Altitude Azimuth Distance (km) Brightness Sun altitude
Rises 17:31:35 0° 202° (SSW) 2,547 10.9 -10.1°
Reaches altitude 10° 17:34:10 10° 222° (SW) 1,664 10.4 -10.5°
Maximum altitude 17:36:40 18° 267° (W) 1,251 9.8 -10.9°
Drops below altitude 10° 17:39:09 10° 311° (NW) 1,656 9.7 -11.3°
Sets 17:41:43 0° 332° (NNW) 2,530 10.3 -11.7°
